SCP
0 0 0 0 0 0 0 0 0 0 0 0 0 0 0 0 0 0 0 0 0 0 0 0 0 0 0 0 0 0 0 0 0 0 0 0 0 0 0 0 0 0 0 0
0 0 0 0 0 0 0 0 0 0 0 0 0 0 0 0 0 0 0 0 0 0 0 0 0 0 0 0 0 0 0 0 0 0 0 0 0 0 0 0 0 0 0 0
0 0 0 0 0 0 0 0 0 0 0 0 0 0 0 0 0 0 0 0 0 0 0 0 0 0 0 0 0 0 0 0 0 0 0 0 0 0 0 0 0 0 0 0
0 0 0 0 0 0 0 0 0 0 0 0 0 0 0 0 0 0 0 0 0 0 0 0 0 0 0 0 0 0 0 0 0 0 0 0 0 0 0 0 0 0 0 0
0 0 0 0 0 0 0 0 0 0 0 0 0 0 0 0 0 0 0 0 0 0 0 0 0 0 0 0 0 0 0 0 0 0 0 0 0 0 0 0 0 0 0 0
0 0 0 0 0 0 0 0 0 0 0 0 0 0 0 0 0 0 0 0 0 0 0 0 0 0 0 0 0 0 0 0 0 0 0 0 0 0 0 0 0 0 0 0
0 0 0 0 0 0 0 0 0 0 0 0 0 0 0 0 0 0 0 0 0 0 0 0 0 0 0 0 0 0 0 0 0 0 0 0 0 0 0 0 0 0 0 0
0 0 0 0 0 0 0 0 0 0 0 0 0 0 0 0 0 0 0 0 0 0 0 0 0 0 0 0 0 0 0 0 0 0 0 0 0 0 0 0 0 0 0 0
0 0 0 0 0 0 0 0 0 0 0 0 0 0 0 0 0 0 0 0 0 0 0 0 0 0 0 0 0 0 0 0 0 0 0 0 0 0 0 0 0 0 0 0
0 0 0 0 0 0 0 0 0 0 0 0 0 0 0 0 0 0 0 0 0 0 0 0 0 0 0 0 0 0 0 0 0 0 0 0 0 0 0 0 0 0 0 0
0 0 0 0 0 0 0 0 0 0 0 0 0 0 0 0 0 0 0 0 0 0 0 0 0 0 0 0 0 0 0 0 0 0 0 0 0 0 0 0 0 0 0 0
0 0 0 0 0 0 0 0 0 0 0 0 0 0 0 0 0 0 0 0 0 0 0 0 0 0 0 0 0 0 0 0 0 0 0 0 0 0 0 0 0 0 0 0
0 0 0 0 0 0 0 0 0 0 0 0 0 0 0 0 0 0 0 0 0 0 0 0 0 0 0 0 0 0 0 0 0 0 0 0 0 0 0 0 0 0 0 0
0 0 0 0 0 0 0 0 0 0 0 0 0 0 0 0 0 0 0 0 0 0 0 0 0 0 0 0 0 0 0 0 0 0 0 0 0 0 0 0 0 0 0 0
0 0 0 0 0 0 0 0 0 0 0 0 0 0 0 0 0 0 0 0 0 0 0 0 0 0 0 0 0 0 0 0 0 0 0 0 0 0 0 0 0 0 0 0
0 0 0 0 0 0 0 0 0 0 0 0 0 0 0 0 0 0 0 0 0 0 0 0 0 0 0 0 0 0 0 0 0 0 0 0 0 0 0 0 0 0 0 0
0 0 0 0 0 0 0 0 0 0 0 0 0 0 0 0 0 0 0 0 0 0 0 0 0 0 0 0 0 0 0 0 0 0 0 0 0 0 0 0 0 0 0 0
0 0 0 0 0 0 0 0 0 0 0 0 0 0 0 0 0 0 0 0 0 0 0 0 0 0 0 0 0 0 0 0 0 0 0 0 0 0 0 0 0 0 0 0
0 0 0 0 0 0 0 0 0 0 0 0 0 0 0 0 0 0 0 0 0 0 0 0 0 0 0 0 0 0 0 0 0 0 0 0 0 0 0 0 0 0 0 0
0 0 0 0 0 0 0 0 0 0 0 0 0 0 0 0 0 0 0 0 0 0 0 0 0 0 0 0 0 0 0 0 0 0 0 0 0 0 0 0 0 0 0 0
0 0 0 0 0 0 0 0 0 0 0 0 0 0 0 0 0 0 0 0 0 0 0 0 0 0 0 0 0 0 0 0 0 0 0 0 0 0 0 0 0 0 0 0
0 0 0 0 0 0 0 0 0 0 0 0 0 0 0 0 0 0 0 0 0 0 0 0 0 0 0 0 0 0 0 0 0 0 0 0 0 0 0 0 0 0 0 0
0 0 0 0 0 0 0 0 0 0 0 0 0 0 0 0 0 0 0 0 0 0 0 0 0 0 0 0 0 0 0 0 0 0 0 0 0 0 0 0 0 0 0 0
0 0 0 0 0 0 0 0 0 0 0 0 0 0 0 0 0 0 0 0 0 0 0 0 0 0 0 0 0 0 0 0 0 0 0 0 0 0 0 0 0 0 0 0
0 0 0 0 0 0 0 0 0 0 0 0 0 0 0 0 0 0 0 0 0 0 0 0 0 0 0 0 0 0 0 0 0 0 0 0 0 0 0 0 0 0 0 0
0 0 0 0 0 0 0 0 0 0 0 0 0 0 0 0 0 0 0 0 0 0 0 0 0 0 0 0 0 0 0 0 0 0 0 0 0 0 0 0 0 0 0 0
Wind_Speed_500mb
4 15 23 31 24 5 13 10 12 4 5 7 17 22 32 24 23 31 34 36 37 38 30 35 36 42 51 61 63 66 70 70 72 74 74 73 71 64 62 61 58 56 49 45
10 24 22 15 17 15 16 13 9 4 2 4 7 23 29 34 23 34 39 40 41 40 45 45 42 43 47 51 57 67 73 73 76 79 77 77 74 72 66 62 64 67 61 56
22 5 23 17 17 19 12 21 11 3 4 3 12 27 18 13 16 25 44 56 44 44 50 48 49 50 52 57 61 63 68 74 78 78 79 79 78 77 76 74 70 71 70 67
16 4 20 14 18 20 17 17 11 13 6 11 2 15 10 10 17 20 34 27 28 29 34 43 47 48 51 51 52 66 73 72 77 78 78 80 80 81 80 76 69 69 68 68
14 22 26 20 17 26 6 14 13 5 9 4 10 11 7 4 17 24 17 14 14 18 21 24 27 34 41 44 51 46 49 62 73 79 82 78 77 77 73 68 69 67 61 64
6 1 9 10 8 15 26 19 14 7 3 12 16 16 16 12 22 7 5 13 13 11 14 11 11 14 21 27 28 34 42 47 54 67 71 72 72 73 72 71 65 57 57 52
7 8 6 9 16 13 9 26 6 6 8 11 0 12 26 16 19 8 12 10 5 8 8 6 4 6 7 12 16 20 26 32 37 48 57 61 63 64 70 69 64 61 54 53
26 17 21 13 11 21 32 28 13 15 11 5 2 19 11 15 12 13 19 15 13 14 12 10 8 7 8 7 8 10 13 19 26 36 46 50 54 61 61 59 56 53 49 47
24 27 8 12 8 27 17 21 8 14 2 3 11 14 20 24 19 24 24 19 16 16 20 16 11 7 7 7 9 10 12 16 23 31 38 44 46 51 53 50 47 44 44 43
16 10 2 7 8 5 22 25 9 9 13 13 17 15 23 5 20 15 18 21 20 19 18 15 11 10 9 9 9 9 10 12 16 20 25 30 35 38 40 39 38 35 33 32
15 6 7 12 27 38 13 14 10 8 10 12 11 17 11 30 18 27 20 17 19 23 21 19 19 16 15 13 11 10 11 11 12 14 17 20 22 26 28 28 27 27 26 27
21 9 11 24 1 9 23 30 35 16 19 13 6 23 5 7 10 24 24 22 20 19 18 18 16 15 13 13 14 15 16 16 17 18 19 21 21 21 21 21 20 19 18 18
21 6 9 4 9 7 19 16 31 22 6 18 15 25 3 3 11 18 26 27 23 22 21 19 18 17 16 15 15 16 20 20 20 21 22 23 23 21 19 17 15 16 16 19
42 6 25 34 22 17 17 23 26 28 11 31 23 55 12 13 19 22 24 28 25 22 21 20 20 20 21 22 22 24 25 27 28 26 24 20 17 14 13 12 15 19 22 27
22 24 18 31 1 11 17 29 40 32 46 28 55 42 40 24 27 38 37 33 33 30 28 27 26 27 27 28 29 30 28 27 25 23 20 17 15 13 15 16 20 24 26 26
11 3 10 11 17 12 7 25 40 47 48 42 49 48 3 24 35 29 38 42 39 39 35 33 31 29 30 30 31 29 27 24 21 18 15 13 10 8 9 11 12 12 11 14
17 15 9 28 16 10 13 42 32 30 41 40 45 58 14 13 26 40 42 47 51 48 42 37 32 28 28 28 25 22 19 17 15 13 12 10 7 4 1 3 6 8 11 15
15 17 5 8 15 17 22 15 34 40 38 33 39 25 21 36 47 56 61 68 67 57 49 41 38 36 34 31 30 27 25 23 20 17 13 9 4 2 6 11 14 17 20 22
15 17 8 11 18 6 6 10 17 29 43 49 39 33 34 27 23 26 47 56 66 53 46 44 41 40 38 36 34 30 27 22 17 12 6 4 7 12 16 20 22 24 27 30
19 14 11 9 10 20 5 7 11 15 20 20 38 43 44 27 21 24 40 42 47 48 48 48 46 43 38 34 30 26 22 17 12 7 7 10 13 15 18 20 24 27 31 35
10 10 16 11 6 11 8 10 24 14 5 9 14 21 35 19 33 14 31 38 44 50 52 49 44 40 36 32 27 22 17 12 7 7 10 11 14 17 20 23 26 30 36 38
12 11 7 7 12 20 20 17 16 3 11 11 9 18 40 32 25 29 39 50 54 54 50 45 42 38 34 28 23 18 12 8 9 12 14 16 18 20 23 27 32 37 42 43
12 10 12 16 11 5 47 5 27 12 13 13 12 18 27 36 37 48 56 56 54 53 51 46 41 37 31 24 18 13 11 12 14 16 18 19 23 27 32 37 42 44 46 47
6 3 5 4 3 6 29 26 31 19 13 9 11 19 31 39 46 58 62 63 58 53 50 46 40 32 24 17 13 12 14 17 19 22 25 29 34 39 44 47 49 51 52 54
4 20 12 8 4 5 18 38 38 25 27 23 20 24 33 40 56 62 67 64 60 55 49 42 34 25 19 15 16 20 22 23 25 28 30 34 37 40 43 45 47 49 48 51
14 10 13 12 20 9 7 20 42 47 43 28 29 33 42 51 61 67 65 61 56 48 40 33 25 16 18 23 25 24 23 24 26 30 33 37 41 44 48 51 51 50 52 53
Wind_Direction_500mb
146 196 199 190 193 139 148 174 182 135 114 216 241 262 270 258 259 261 252 248 251 253 252 242 237 235 238 241 240 238 237 237 237 236 237 239 240 238 236 236 238 239 237 238
165 216 202 180 164 154 167 170 169 110 96 233 291 274 267 266 245 242 253 255 246 247 250 247 243 240 241 244 244 241 240 240 239 240 240 242 245 246 245 242 239 240 239 240
201 171 164 164 167 177 195 211 182 183 133 84 310 276 242 246 238 247 246 250 253 248 249 249 250 248 247 245 245 244 242 242 240 240 240 240 244 248 249 246 244 241 243 244
223 91 160 171 190 189 209 204 189 147 184 252 337 284 251 251 265 243 250 245 249 251 247 248 249 248 246 246 245 245 239 240 241 238 234 234 231 236 242 247 250 248 250 247
180 172 166 190 201 191 196 153 158 113 206 271 189 258 260 334 270 251 232 200 212 223 231 243 251 247 240 244 240 237 235 238 239 238 237 235 235 239 241 247 246 255 252 255
112 87 188 171 78 176 141 108 80 81 188 250 221 230 252 207 234 277 177 149 183 212 217 228 228 226 224 232 236 238 236 243 242 236 234 233 237 237 233 242 245 249 252 253
141 176 163 150 114 129 171 159 136 205 211 253 329 215 261 233 235 241 165 192 237 215 200 191 159 144 179 210 223 228 232 238 237 232 229 230 229 234 235 239 243 246 252 256
191 205 175 174 204 171 185 186 181 194 197 208 125 232 247 250 254 249 248 255 250 218 203 195 190 175 167 184 202 210 232 238 234 229 228 229 225 228 233 237 241 247 251 256
201 214 176 184 156 156 180 211 176 108 44 233 214 260 271 253 250 239 241 241 232 224 207 212 213 210 221 221 221 214 208 215 221 222 222 223 225 224 229 234 238 242 244 246
183 176 177 148 133 216 198 143 164 221 195 229 235 260 238 165 222 220 219 219 215 214 209 208 215 231 242 255 254 245 232 221 213 210 213 213 213 217 223 226 227 229 240 249
163 164 127 166 209 188 163 184 197 194 209 219 250 248 210 223 208 208 189 196 193 192 192 199 208 212 222 228 230 232 229 221 212 201 199 197 200 203 206 211 225 230 239 250
188 127 160 199 68 319 224 208 192 196 201 232 269 255 130 232 223 187 187 188 184 184 183 188 194 201 206 212 214 210 210 208 199 190 186 187 185 185 188 188 198 206 220 239
172 178 145 149 227 216 218 201 217 221 45 205 204 254 146 184 195 185 175 180 176 169 169 176 173 175 184 190 192 191 183 177 172 164 160 159 158 162 173 188 208 230 247 262
163 142 206 218 223 146 201 201 209 203 204 229 223 249 172 200 212 194 192 189 187 190 189 182 175 177 179 176 173 170 165 157 152 151 154 158 167 182 204 226 249 264 276 281
174 209 203 237 189 185 196 198 198 201 221 217 239 242 245 207 202 207 204 195 199 203 199 195 191 188 184 177 173 173 169 165 163 163 169 179 192 217 240 254 265 275 278 282
173 238 156 231 197 185 209 214 203 209 222 233 249 256 345 216 202 203 208 202 201 205 205 204 201 195 190 186 182 181 179 177 176 177 182 195 217 242 267 280 281 282 290 304
156 145 146 232 166 137 273 220 206 212 223 223 233 246 226 194 202 215 214 209 211 210 210 208 203 195 192 188 185 183 180 178 175 169 164 155 153 165 287 314 318 324 311 304
147 159 131 211 137 205 249 199 226 224 234 226 255 252 238 238 225 232 229 222 217 212 208 200 195 190 185 183 181 177 171 164 161 158 157 166 179 296 304 305 304 303 303 301
187 170 174 190 202 312 231 196 177 195 239 234 236 241 229 216 217 236 229 230 225 211 202 194 187 183 178 174 170 167 164 163 163 172 184 243 287 294 295 297 300 305 307 307
166 165 172 179 176 209 249 197 165 128 255 200 217 235 222 192 234 241 223 214 208 202 193 186 181 177 174 172 170 170 172 177 190 216 271 293 299 301 305 310 314 315 314 312
163 172 197 165 204 273 239 155 155 181 235 172 205 219 170 195 228 226 195 190 188 184 179 177 176 176 175 175 176 180 185 196 225 272 284 287 292 298 304 310 313 314 313 309
161 153 167 136 200 249 153 130 189 169 145 166 179 180 192 196 180 189 181 178 176 176 175 177 180 179 178 177 178 188 202 228 265 278 280 283 288 294 300 304 306 310 311 307
200 189 169 197 208 111 178 175 203 181 177 190 188 187 191 186 181 179 175 174 174 177 177 177 181 180 176 177 188 209 234 256 268 271 273 280 289 295 298 301 304 305 305 306
257 179 194 130 166 176 205 215 201 199 200 218 218 207 193 190 184 179 177 176 176 176 177 177 178 179 183 191 211 242 262 269 269 273 280 287 291 294 297 300 301 303 304 304
161 149 172 261 224 206 226 227 226 228 237 246 243 223 204 197 186 184 180 179 178 176 175 175 177 183 198 220 248 259 261 265 272 279 284 289 293 296 298 300 303 304 305 303
190 167 189 225 185 189 194 231 236 239 243 253 240 214 205 202 192 187 182 179 177 175 174 178 185 205 229 240 248 254 263 274 283 289 294 297 300 302 303 304 303 304 304 303
Wind_Speed_850mb
4 15 23 31 24 5 13 10 12 4 5 7 17 22 32 24 23 31 34 36 37 38 30 35 36 42 51 61 63 66 70 70 72 74 74 73 71 64 62 61 58 56 49 45
10 24 22 15 17 15 16 13 9 4 2 4 7 23 29 34 23 34 39 40 41 40 45 45 42 43 47 51 57 67 73 73 76 79 77 77 74 72 66 62 64 67 61 56
22 5 23 17 17 19 12 21 11 3 4 3 12 27 18 13 16 25 44 56 44 44 50 48 49 50 52 57 61 63 68 74 78 78 79 79 78 77 76 74 70 71 70 67
16 4 20 14 18 20 17 17 11 13 6 11 2 15 10 10 17 20 34 27 28 29 34 43 47 48 51 51 52 66 73 72 77 78 78 80 80 81 80 76 69 69 68 68
14 22 26 20 17 26 6 14 13 5 9 4 10 11 7 4 17 24 17 14 14 18 21 24 27 34 41 44 51 46 49 62 73 79 82 78 77 77 73 68 69 67 61 64
6 1 9 10 8 15 26 19 14 7 3 12 16 16 16 12 22 7 5 13 13 11 14 11 11 14 21 27 28 34 42 47 54 67 71 72 72 73 72 71 65 57 57 52
7 8 6 9 16 13 9 26 6 6 8 11 0 12 26 16 19 8 12 10 5 8 8 6 4 6 7 12 16 20 26 32 37 48 57 61 63 64 70 69 64 61 54 53
26 17 21 13 11 21 32 28 13 15 11 5 2 19 11 15 12 13 19 15 13 14 12 10 8 7 8 7 8 10 13 19 26 36 46 50 54 61 61 59 56 53 49 47
24 27 8 12 8 27 17 21 8 14 2 3 11 14 20 24 19 24 24 19 16 16 20 16 11 7 7 7 9 10 12 16 23 31 38 44 46 51 53 50 47 44 44 43
16 10 2 7 8 5 22 25 9 9 13 13 17 15 23 5 20 15 18 21 20 19 18 15 11 10 9 9 9 9 10 12 16 20 25 30 35 38 40 39 38 35 33 32
15 6 7 12 27 38 13 14 10 8 10 12 11 17 11 30 18 27 20 17 19 23 21 19 19 16 15 13 11 10 11 11 12 14 17 20 22 26 28 28 27 27 26 27
21 9 11 24 1 9 23 30 35 16 19 13 6 23 5 7 10 24 24 22 20 19 18 18 16 15 13 13 14 15 16 16 17 18 19 21 21 21 21 21 20 19 18 18
21 6 9 4 9 7 19 16 31 22 6 18 15 25 3 3 11 18 26 27 23 22 21 19 18 17 16 15 15 16 20 20 20 21 22 23 23 21 19 17 15 16 16 19
42 6 25 34 22 17 17 23 26 28 11 31 23 55 12 13 19 22 24 28 25 22 21 20 20 20 21 22 22 24 25 27 28 26 24 20 17 14 13 12 15 19 22 27
22 24 18 31 1 11 17 29 40 32 46 28 55 42 40 24 27 38 37 33 33 30 28 27 26 27 27 28 29 30 28 27 25 23 20 17 15 13 15 16 20 24 26 26
11 3 10 11 17 12 7 25 40 47 48 42 49 48 3 24 35 29 38 42 39 39 35 33 31 29 30 30 31 29 27 24 21 18 15 13 10 8 9 11 12 12 11 14
17 15 9 28 16 10 13 42 32 30 41 40 45 58 14 13 26 40 42 47 51 48 42 37 32 28 28 28 25 22 19 17 15 13 12 10 7 4 1 3 6 8 11 15
15 17 5 8 15 17 22 15 34 40 38 33 39 25 21 36 47 56 61 68 67 57 49 41 38 36 34 31 30 27 25 23 20 17 13 9 4 2 6 11 14 17 20 22
15 17 8 11 18 6 6 10 17 29 43 49 39 33 34 27 23 26 47 56 66 53 46 44 41 40 38 36 34 30 27 22 17 12 6 4 7 12 16 20 22 24 27 30
19 14 11 9 10 20 5 7 11 15 20 20 38 43 44 27 21 24 40 42 47 48 48 48 46 43 38 34 30 26 22 17 12 7 7 10 13 15 18 20 24 27 31 35
10 10 16 11 6 11 8 10 24 14 5 9 14 21 35 19 33 14 31 38 44 50 52 49 44 40 36 32 27 22 17 12 7 7 10 11 14 17 20 23 26 30 36 38
12 11 7 7 12 20 20 17 16 3 11 11 9 18 40 32 25 29 39 50 54 54 50 45 42 38 34 28 23 18 12 8 9 12 14 16 18 20 23 27 32 37 42 43
12 10 12 16 11 5 47 5 27 12 13 13 12 18 27 36 37 48 56 56 54 53 51 46 41 37 31 24 18 13 11 12 14 16 18 19 23 27 32 37 42 44 46 47
6 3 5 4 3 6 29 26 31 19 13 9 11 19 31 39 46 58 62 63 58 53 50 46 40 32 24 17 13 12 14 17 19 22 25 29 34 39 44 47 49 51 52 54
4 20 12 8 4 5 18 38 38 25 27 23 20 24 33 40 56 62 67 64 60 55 49 42 34 25 19 15 16 20 22 23 25 28 30 34 37 40 43 45 47 49 48 51
14 10 13 12 20 9 7 20 42 47 43 28 29 33 42 51 61 67 65 61 56 48 40 33 25 16 18 23 25 24 23 24 26 30 33 37 41 44 48 51 51 50 52 53
Wind_Direction_850mb
146 196 199 190 193 139 148 174 182 135 114 216 241 262 270 258 259 261 252 248 251 253 252 242 237 235 238 241 240 238 237 237 237 236 237 239 240 238 236 236 238 239 237 238
165 216 202 180 164 154 167 170 169 110 96 233 291 274 267 266 245 242 253 255 246 247 250 247 243 240 241 244 244 241 240 240 239 240 240 242 245 246 245 242 239 240 239 240
201 171 164 164 167 177 195 211 182 183 133 84 310 276 242 246 238 247 246 250 253 248 249 249 250 248 247 245 245 244 242 242 240 240 240 240 244 248 249 246 244 241 243 244
223 91 160 171 190 189 209 204 189 147 184 252 337 284 251 251 265 243 250 245 249 251 247 248 249 248 246 246 245 245 239 240 241 238 234 234 231 236 242 247 250 248 250 247
180 172 166 190 201 191 196 153 158 113 206 271 189 258 260 334 270 251 232 200 212 223 231 243 251 247 240 244 240 237 235 238 239 238 237 235 235 239 241 247 246 255 252 255
112 87 188 171 78 176 141 108 80 81 188 250 221 230 252 207 234 277 177 149 183 212 217 228 228 226 224 232 236 238 236 243 242 236 234 233 237 237 233 242 245 249 252 253
141 176 163 150 114 129 171 159 136 205 211 253 329 215 261 233 235 241 165 192 237 215 200 191 159 144 179 210 223 228 232 238 237 232 229 230 229 234 235 239 243 246 252 256
191 205 175 174 204 171 185 186 181 194 197 208 125 232 247 250 254 249 248 255 250 218 203 195 190 175 167 184 202 210 232 238 234 229 228 229 225 228 233 237 241 247 251 256
201 214 176 184 156 156 180 211 176 108 44 233 214 260 271 253 250 239 241 241 232 224 207 212 213 210 221 221 221 214 208 215 221 222 222 223 225 224 229 234 238 242 244 246
183 176 177 148 133 216 198 143 164 221 195 229 235 260 238 165 222 220 219 219 215 214 209 208 215 231 242 255 254 245 232 221 213 210 213 213 213 217 223 226 227 229 240 249
163 164 127 166 209 188 163 184 197 194 209 219 250 248 210 223 208 208 189 196 193 192 192 199 208 212 222 228 230 232 229 221 212 201 199 197 200 203 206 211 225 230 239 250
188 127 160 199 68 319 224 208 192 196 201 232 269 255 130 232 223 187 187 188 184 184 183 188 194 201 206 212 214 210 210 208 199 190 186 187 185 185 188 188 198 206 220 239
172 178 145 149 227 216 218 201 217 221 45 205 204 254 146 184 195 185 175 180 176 169 169 176 173 175 184 190 192 191 183 177 172 164 160 159 158 162 173 188 208 230 247 262
163 142 206 218 223 146 201 201 209 203 204 229 223 249 172 200 212 194 192 189 187 190 189 182 175 177 179 176 173 170 165 157 152 151 154 158 167 182 204 226 249 264 276 281
174 209 203 237 189 185 196 198 198 201 221 217 239 242 245 207 202 207 204 195 199 203 199 195 191 188 184 177 173 173 169 165 163 163 169 179 192 217 240 254 265 275 278 282
173 238 156 231 197 185 209 214 203 209 222 233 249 256 345 216 202 203 208 202 201 205 205 204 201 195 190 186 182 181 179 177 176 177 182 195 217 242 267 280 281 282 290 304
156 145 146 232 166 137 273 220 206 212 223 223 233 246 226 194 202 215 214 209 211 210 210 208 203 195 192 188 185 183 180 178 175 169 164 155 153 165 287 314 318 324 311 304
147 159 131 211 137 205 249 199 226 224 234 226 255 252 238 238 225 232 229 222 217 212 208 200 195 190 185 183 181 177 171 164 161 158 157 166 179 296 304 305 304 303 303 301
187 170 174 190 202 312 231 196 177 195 239 234 236 241 229 216 217 236 229 230 225 211 202 194 187 183 178 174 170 167 164 163 163 172 184 243 287 294 295 297 300 305 307 307
166 165 172 179 176 209 249 197 165 128 255 200 217 235 222 192 234 241 223 214 208 202 193 186 181 177 174 172 170 170 172 177 190 216 271 293 299 301 305 310 314 315 314 312
163 172 197 165 204 273 239 155 155 181 235 172 205 219 170 195 228 226 195 190 188 184 179 177 176 176 175 175 176 180 185 196 225 272 284 287 292 298 304 310 313 314 313 309
161 153 167 136 200 249 153 130 189 169 145 166 179 180 192 196 180 189 181 178 176 176 175 177 180 179 178 177 178 188 202 228 265 278 280 283 288 294 300 304 306 310 311 307
200 189 169 197 208 111 178 175 203 181 177 190 188 187 191 186 181 179 175 174 174 177 177 177 181 180 176 177 188 209 234 256 268 271 273 280 289 295 298 301 304 305 305 306
257 179 194 130 166 176 205 215 201 199 200 218 218 207 193 190 184 179 177 176 176 176 177 177 178 179 183 191 211 242 262 269 269 273 280 287 291 294 297 300 301 303 304 304
161 149 172 261 224 206 226 227 226 228 237 246 243 223 204 197 186 184 180 179 178 176 175 175 177 183 198 220 248 259 261 265 272 279 284 289 293 296 298 300 303 304 305 303
190 167 189 225 185 189 194 231 236 239 243 253 240 214 205 202 192 187 182 179 177 175 174 178 185 205 229 240 248 254 263 274 283 289 294 297 300 302 303 304 303 304 304 303